Regional Weather Roundup
Issued by NWS

Home | Current Version | Previous Version | Text Only | Print | Product List | Glossary Off
Versions: 1 2 3 4 5 6 7 8 9 10 11 12 13 14 15 16 17 18 19 20 21 22 23 24 25 26 27 28 29 30 31 32 33 34 35 36 37 38 39 40 41 42 43 44 45 46 47 48 49 50

000
ASUS43 KDTX 221401
RWRMI
MICHIGAN HOURLY REGIONAL WEATHER ROUNDUP
NATIONAL WEATHER SERVICE DETROIT/PONTIAC MI
1000 AM EDT SAT APR 22 2017

NOTE: "FAIR" INDICATES FEW OR NO CLOUDS BELOW 12,000 FEET WITH NO
SIGNIFICANT WEATHER AND/OR OBSTRUCTION TO VISIBILITY.

MIZ047>049-052>055-059>063-066>070-074>076-081>083-221500-
SOUTHEAST LOWER MICHIGAN

CITY           SKY/WX    TMP DP  RH WIND       PRES   REMARKS
ADRIAN         CLOUDY    45  36  70 NE8       30.14F
ALMA           SUNNY     47  33  59 NE8       30.19F
ANN ARBOR      CLOUDY    46  36  68 N8        30.14F
BAD AXE        SUNNY     44  36  72 N8        30.20R
CARO           SUNNY     46  37  73 N6        30.19R
DETROIT CITY   CLOUDY    47  33  58 N12       30.15F
DETROIT        PTSUNNY   48  34  58 N10       30.15F
FLINT          CLOUDY    47  35  63 NE8       30.18S
GROSSE ILE     CLOUDY    46  34  61 NE8       30.13F
HILLSDALE      CLOUDY    43  34  70 NE3       30.13F
HOWELL         CLOUDY    44  33  64 N7        30.15F

CITY           SKY/WX    TMP DP  RH WIND       PRES   REMARKS
JACKSON        CLOUDY    47  33  58 NE7       30.15F
LAMBERTVILLE   PTSUNNY   45  36  72 NE7       30.14F
LANSING        SUNNY     47  32  56 NE9       30.18F
LAPEER         FAIR      46  34  63 N3G17     30.18S
MASON          CLOUDY    45  36  70 NE9       30.16F
MONROE         CLOUDY    46  35  67 NE6       30.14F
MT. CLEMENS    PTSUNNY   48  35  62 N12G21    30.13S
PONTIAC        CLOUDY    46  35  65 N10       30.14F
PORT HOPE        N/A     43  37  79 NW9       30.18R
PORT HURON     CLOUDY    46  32  57 N9        30.16S
TRI CITIES     SUNNY     46  34  62 NE10      30.20S
MIDLAND        FAIR      47  29  50 N3        30.20S
TROY           CLOUDY    47  32  54 NE13      30.15F
SAGINAW HB     SUNNY     46  36  66 N9        30.19S
$$
MIZ043>046-050>051-056>058-064>065-071>073-077>080-221500-
SOUTHWEST LOWER MICHIGAN

CITY           SKY/WX    TMP DP  RH WIND       PRES   REMARKS
BATTLE CREEK   SUNNY     47  33  58 NE10      30.17R
BENTON HARBOR  CLOUDY    49  29  46 VRB5      30.20R
BIG RAPIDS     SUNNY     45  28  52 N5        30.19F
COLDWATER      CLOUDY    46  36  66 MISG      30.16R
FREMONT        FAIR      46  28  48 N5        30.20F
HOLLAND        SUNNY     50  32  50 N7        30.20R
GRAND RAPIDS   MOSUNNY   49  33  54 N7        30.18S
IONIA          FAIR      47  33  56 NE8       30.18F
KALAMAZOO      MOSUNNY   49  30  48 N8        30.18R
LUDINGTON      SUNNY     47  33  57 N5        30.22F
MARSHALL       CLOUDY    46  33  62 N5        30.15R
MOUNT PLEASANT SUNNY     47  32  56 N6        30.19F
MUSKEGON       SUNNY     50  29  44 N6        30.20F
SOUTH HAVEN    CLOUDY    47  32  55 NE5       30.21R
$$
MIZ016>042-221500-
NORTHERN LOWER MICHIGAN

CITY           SKY/WX    TMP DP  RH WIND       PRES   REMARKS
ALPENA         SUNNY     47  30  51 NW8       30.20R
BEAVER ISLAND  SUNNY     48  31  53 CALM      30.20F
BELLAIRE       SUNNY     41  33  74 CALM      30.23S
CADILLAC       SUNNY     46  27  47 E3        30.19F
CHARLEVOIX     SUNNY     45  33  64 CALM      30.25S
FRANKFORT      SUNNY     46  33  59 W5        30.23S
GAYLORD        SUNNY     49  25  39 CALM      30.19S
GRAYLING       SUNNY     46  32  58 CALM      30.20S
HARBOR SPRINGS SUNNY     39  32  73 SW5       30.21F
HOUGHTON LAKE  SUNNY     45  30  55 W3        30.20R
MANISTEE       SUNNY     47  33  58 NW3       30.23S
OSCODA         SUNNY     47  31  53 CALM      30.19R
PELLSTON       SUNNY     48  30  49 CALM      30.21R
ROGERS CITY    SUNNY     46  31  55 N7        30.20S
TRAVERSE CITY  MOSUNNY   45  27  49 W3        30.22S
$$
MIZ007>008-015-221500-
EASTERN UPPER MICHIGAN

CITY           SKY/WX    TMP DP  RH WIND       PRES   REMARKS
KINROSS        SUNNY     46  30  53 NW3       30.19F
MACKINAC ISLAN SUNNY     45  30  57 CALM      30.20S
NEWBERRY       SUNNY     47  29  50 CALM      30.18F
S. S. MARIE    SUNNY     47  33  58 N5        30.18S
MUNISING         N/A     42  34  73 CALM      30.18F
$$
MIZ004>006-011>014-085-221500-
CENTRAL UPPER MICHIGAN

CITY           SKY/WX    TMP DP  RH WIND       PRES   REMARKS
MANISTIQUE     SUNNY     48  26  41 CALM      30.20S
ESCANABA       SUNNY     51  24  34 VRB3      30.22S
MENOMINEE      SUNNY     50  28  42 S5        30.25
SAWYER-GWINN   SUNNY     48  23  37 W3        30.19S
$$
MIZ001>003-009>011-084-221500-
WESTERN UPPER MICHIGAN

CITY           SKY/WX    TMP DP  RH WIND       PRES   REMARKS
IRON MOUNTAIN  SUNNY     49  20  31 CALM      30.20S
HOUGHTON       SUNNY     54  27  35 W17       30.15S
COPPER HARBOR    N/A     49  27  42 NE3       30.13F
IRONWOOD       SUNNY     54  28  36 SW9       30.20S
$$

ABBREVIATIONS USED IN REMARKS
   TC - TEMPERATURE IN CELSIUS
  WCI - WIND CHILL INDEX
   HX - HEAT INDEX
  VSB - VISIBILITY





USA.gov is the U.S. government's official web portal to all federal, state and local government web resources and services.